| time (UTC) | temp C | wind direction | speed KPH | gust KPH | rain 1hr cm | rain 24hr cm | rain mn cm | humidity % | barometer mb |
| 20260505101241 | 2 | 229 | 8.0 | 11.3 | 0.00 | 0.00 | 0.00 | 90 | 1027.1 |
| 20260505100738 | 2 | 254 | 9.7 | 14.5 | 0.00 | 0.00 | 0.00 | 90 | 1027.3 |
| 20260505100235 | 2 | 232 | 11.3 | 16.1 | 0.00 | 0.00 | 0.00 | 89 | 1027.3 |
| 20260505095730 | 2 | 236 | 9.7 | 19.3 | 0.00 | 0.00 | 0.00 | 89 | 1027.5 |
| 20260505095229 | 2 | 235 | 12.9 | 20.9 | 0.00 | 0.00 | 0.00 | 88 | 1027.3 |
| 20260505094724 | 2 | 234 | 16.1 | 25.7 | 0.00 | 0.00 | 0.00 | 88 | 1027.3 |
| 20260505094220 | 2 | 233 | 20.9 | 25.7 | 0.00 | 0.00 | 0.00 | 87 | 1027.1 |
| 20260505093716 | 2 | 231 | 16.1 | 25.7 | 0.00 | 0.00 | 0.00 | 86 | 1027.1 |
| 20260505093214 | 2 | 235 | 17.7 | 25.7 | 0.00 | 0.00 | 0.00 | 86 | 1027.0 |
| 20260505092711 | 2 | 238 | 27.4 | 27.4 | 0.00 | 0.00 | 0.00 | 85 | 1027.1 |
| 20260505092210 | 2 | 237 | 25.7 | 33.8 | 0.00 | 0.00 | 0.00 | 84 | 1027.0 |
| 20260505091706 | 2 | 235 | 20.9 | 35.4 | 0.00 | 0.00 | 0.00 | 83 | 1027.0 |
| 20260505091204 | 2 | 235 | 27.4 | 40.2 | 0.00 | 0.00 | 0.00 | 82 | 1026.9 |
| 20260505090702 | 3 | 228 | 16.1 | 41.8 | 0.00 | 0.00 | 0.00 | 81 | 1026.9 |
| 20260505090200 | 3 | 225 | 22.5 | 30.6 | 0.00 | 0.00 | 0.00 | 80 | 1026.7 |
| 20260505085657 | 3 | 230 | 25.7 | 41.8 | 0.00 | 0.00 | 0.00 | 80 | 1027.0 |
| 20260505085155 | 3 | 229 | 6.4 | 38.6 | 0.00 | 0.00 | 0.00 | 79 | 1027.1 |
| 20260505084652 | 3 | 226 | 16.1 | 33.8 | 0.00 | 0.00 | 0.00 | 79 | 1027.3 |
| 20260505084151 | 3 | 223 | 9.7 | 22.5 | 0.00 | 0.00 | 0.00 | 78 | 1027.3 |
| 20260505083648 | 3 | 205 | 8.0 | 20.9 | 0.00 | 0.00 | 0.00 | 76 | 1027.1 |
| 20260505083144 | 3 | 216 | 17.7 | 25.7 | 0.00 | 0.00 | 0.00 | 75 | 1027.1 |
| 20260505082640 | 3 | 220 | 6.4 | 25.7 | 0.00 | 0.00 | 0.00 | 75 | 1027.4 |
| 20260505082137 | 3 | 223 | 9.7 | 24.1 | 0.00 | 0.00 | 0.00 | 73 | 1027.4 |
| 20260505081633 | 3 | 222 | 12.9 | 27.4 | 0.00 | 0.00 | 0.00 | 72 | 1027.1 |
| 20260505081131 | 4 | 210 | 16.1 | 22.5 | 0.00 | 0.00 | 0.00 | 70 | 1027.4 |
| 20260505080627 | 5 | 201 | 6.4 | 20.9 | 0.00 | 0.00 | 0.00 | 67 | 1027.3 |
| 20260505080123 | 5 | 222 | 9.7 | 22.5 | 0.00 | 0.00 | 0.00 | 67 | 1027.1 |
| 20260505075620 | 5 | 210 | 8.0 | 19.3 | 0.00 | 0.00 | 0.00 | 65 | 1027.3 |
| 20260505075117 | 5 | 201 | 6.4 | 11.3 | 0.00 | 0.00 | 0.00 | 63 | 1027.4 |
| 20260505074614 | 6 | 204 | 3.2 | 8.0 | 0.00 | 0.00 | 0.00 | 57 | 1027.5 |
| 20260505074111 | 6 | 116 | 4.8 | 6.4 | 0.00 | 0.00 | 0.00 | 57 | 1027.5 |
| 20260505073608 | 6 | 109 | 8.0 | 11.3 | 0.00 | 0.00 | 0.00 | 56 | 1027.5 |
| 20260505073107 | 6 | 125 | 4.8 | 6.4 | 0.00 | 0.00 | 0.00 | 56 | 1027.8 |
| 20260505072607 | 6 | 74 | 9.7 | 11.3 | 0.00 | 0.00 | 0.00 | 56 | 1027.8 |
| 20260505072104 | 6 | 107 | 4.8 | 6.4 | 0.00 | 0.00 | 0.00 | 55 | 1027.7 |
| 20260505071559 | 5 | 79 | 4.8 | 6.4 | 0.00 | 0.00 | 0.00 | 56 | 1027.8 |
| 20260505071057 | 5 | 88 | 6.4 | 8.0 | 0.00 | 0.00 | 0.00 | 59 | 1027.7 |
| 20260505070554 | 5 | 75 | 11.3 | 17.7 | 0.00 | 0.00 | 0.00 | 58 | 1028.1 |
| 20260505070050 | 6 | 74 | 4.8 | 8.0 | 0.00 | 0.00 | 0.00 | 54 | 1028.2 |
| 20260505065546 | 6 | 54 | 16.1 | 35.4 | 0.00 | 0.00 | 0.00 | 54 | 1028.1 |
| 20260505065043 | 5 | 77 | 20.9 | 27.4 | 0.00 | 0.00 | 0.00 | 58 | 1028.1 |
| 20260505064540 | 6 | 79 | 24.1 | 29.0 | 0.00 | 0.00 | 0.00 | 59 | 1028.1 |
| 20260505064038 | 6 | 263 | 19.3 | 22.5 | 0.00 | 0.00 | 0.00 | 59 | 1027.5 |
| 20260505063535 | 6 | 259 | 16.1 | 20.9 | 0.00 | 0.00 | 0.00 | 58 | 1027.5 |
| 20260505063031 | 6 | 263 | 16.1 | 19.3 | 0.00 | 0.00 | 0.00 | 58 | 1027.4 |
| 20260505062528 | 6 | 264 | 11.3 | 16.1 | 0.00 | 0.00 | 0.00 | 57 | 1027.4 |
| 20260505062025 | 6 | 263 | 14.5 | 16.1 | 0.00 | 0.00 | 0.00 | 57 | 1027.7 |
| 20260505061523 | 6 | 299 | 14.5 | 20.9 | 0.00 | 0.00 | 0.00 | 55 | 1027.7 |
| 20260505061020 | 6 | 296 | 12.9 | 20.9 | 0.00 | 0.00 | 0.00 | 55 | 1027.5 |
| 20260505060518 | 6 | 308 | 11.3 | 17.7 | 0.00 | 0.00 | 0.00 | 55 | 1027.8 |
| 20260505060014 | 7 | 302 | 12.9 | 20.9 | 0.00 | 0.00 | 0.00 | 53 | 1027.7 |
| 20260505055509 | 7 | 301 | 12.9 | 17.7 | 0.00 | 0.00 | 0.00 | 53 | 1027.7 |
| 20260505055006 | 7 | 305 | 14.5 | 19.3 | 0.00 | 0.00 | 0.00 | 53 | 1027.7 |
| 20260505054504 | 6 | 301 | 9.7 | 14.5 | 0.00 | 0.00 | 0.00 | 54 | 1027.5 |
| 20260505054002 | 7 | 264 | 11.3 | 16.1 | 0.00 | 0.00 | 0.00 | 54 | 1027.7 |
| 20260505053458 | 6 | 269 | 11.3 | 14.5 | 0.00 | 0.00 | 0.00 | 55 | 1027.5 |
| 20260505052955 | 6 | 260 | 12.9 | 17.7 | 0.00 | 0.00 | 0.00 | 55 | 1027.7 |
| 20260505052452 | 6 | 262 | 12.9 | 17.7 | 0.00 | 0.00 | 0.00 | 55 | 1027.5 |
| 20260505051949 | 6 | 246 | 9.7 | 16.1 | 0.00 | 0.00 | 0.00 | 56 | 1027.4 |
| 20260505051446 | 6 | 237 | 12.9 | 14.5 | 0.00 | 0.00 | 0.00 | 56 | 1027.5 |
| 20260505050944 | 6 | 230 | 14.5 | 17.7 | 0.00 | 0.00 | 0.00 | 56 | 1027.5 |
| 20260505050443 | 6 | 249 | 6.4 | 14.5 | 0.00 | 0.00 | 0.00 | 56 | 1027.7 |
| 20260505041410 | 7 | 344 | 8.0 | 17.7 | 0.00 | 0.00 | 0.00 | 48 | 1027.8 |
| 20260505040907 | 7 | 337 | 19.3 | 24.1 | 0.00 | 0.00 | 0.00 | 47 | 1027.9 |
| 20260505040405 | 7 | 333 | 16.1 | 20.9 | 0.00 | 0.00 | 0.00 | 50 | 1027.9 |
| 20260505035901 | 7 | 337 | 19.3 | 25.7 | 0.00 | 0.00 | 0.00 | 51 | 1027.9 |
| 20260505035357 | 7 | 339 | 35.4 | 35.4 | 0.00 | 0.00 | 0.00 | 48 | 1027.7 |
| 20260505034855 | 7 | 338 | 20.9 | 27.4 | 0.00 | 0.00 | 0.00 | 52 | 1027.8 |
| 20260505034351 | 7 | 327 | 22.5 | 37.0 | 0.00 | 0.00 | 0.00 | 52 | 1027.9 |
| 20260505033848 | 7 | 337 | 27.4 | 35.4 | 0.00 | 0.00 | 0.00 | 55 | 1027.8 |
| 20260505033345 | 7 | 338 | 22.5 | 25.7 | 0.00 | 0.00 | 0.00 | 53 | 1027.7 |
| 20260505032843 | 7 | 342 | 16.1 | 30.6 | 0.00 | 0.00 | 0.00 | 54 | 1027.7 |
| 20260505032339 | 7 | 335 | 24.1 | 30.6 | 0.00 | 0.00 | 0.00 | 55 | 1027.5 |
| 20260505031836 | 6 | 338 | 14.5 | 30.6 | 0.00 | 0.00 | 0.00 | 56 | 1027.5 |
| 20260505031333 | 6 | 334 | 20.9 | 30.6 | 0.00 | 0.00 | 0.00 | 58 | 1027.5 |
| 20260505030830 | 6 | 329 | 17.7 | 29.0 | 0.00 | 0.00 | 0.00 | 60 | 1027.4 |
| 20260505030326 | 6 | 329 | 20.9 | 32.2 | 0.00 | 0.00 | 0.00 | 60 | 1027.5 |
| 20260505025822 | 6 | 335 | 22.5 | 33.8 | 0.00 | 0.00 | 0.00 | 59 | 1027.4 |
| 20260505025320 | 6 | 325 | 20.9 | 22.5 | 0.00 | 0.00 | 0.00 | 57 | 1027.4 |
| 20260505024818 | 7 | 320 | 12.9 | 29.0 | 0.00 | 0.00 | 0.00 | 54 | 1027.4 |
| 20260505024315 | 6 | 334 | 25.7 | 27.4 | 0.00 | 0.00 | 0.00 | 55 | 1027.4 |
| 20260505023812 | 6 | 329 | 16.1 | 22.5 | 0.00 | 0.00 | 0.00 | 58 | 1027.3 |
| 20260505023309 | 7 | 323 | 27.4 | 38.6 | 0.00 | 0.00 | 0.00 | 56 | 1027.5 |
| 20260505022807 | 6 | 279 | 6.4 | 32.2 | 0.00 | 0.00 | 0.00 | 57 | 1027.1 |
| 20260505022304 | 6 | 295 | 11.3 | 27.4 | 0.00 | 0.00 | 0.00 | 58 | 1027.5 |
| 20260505021800 | 7 | 284 | 19.3 | 29.0 | 0.00 | 0.00 | 0.00 | 57 | 1027.1 |
| 20260505021257 | 6 | 299 | 22.5 | 33.8 | 0.00 | 0.00 | 0.00 | 57 | 1027.1 |
| 20260505020753 | 6 | 301 | 24.1 | 35.4 | 0.00 | 0.00 | 0.00 | 57 | 1027.0 |
| 20260505020248 | 7 | 308 | 37.0 | 43.5 | 0.00 | 0.00 | 0.00 | 55 | 1027.4 |
| 20260505015746 | 7 | 309 | 22.5 | 40.2 | 0.00 | 0.00 | 0.00 | 57 | 1027.3 |
| 20260505015242 | 7 | 297 | 17.7 | 37.0 | 0.00 | 0.00 | 0.00 | 58 | 1027.1 |
| 20260505014740 | 7 | 302 | 25.7 | 43.5 | 0.00 | 0.00 | 0.00 | 58 | 1027.4 |
| 20260505014237 | 7 | 282 | 29.0 | 40.2 | 0.00 | 0.00 | 0.00 | 57 | 1027.4 |
| 20260505013733 | 7 | 295 | 30.6 | 41.8 | 0.00 | 0.00 | 0.00 | 56 | 1027.7 |
| 20260505013231 | 7 | 283 | 9.7 | 41.8 | 0.00 | 0.00 | 0.00 | 57 | 1027.3 |
| 20260505012729 | 7 | 281 | 16.1 | 38.6 | 0.00 | 0.00 | 0.00 | 56 | 1027.5 |
| 20260505012226 | 7 | 277 | 27.4 | 45.1 | 0.00 | 0.00 | 0.00 | 56 | 1027.5 |
| 20260505011721 | 7 | 267 | 27.4 | 43.5 | 0.00 | 0.00 | 0.00 | 55 | 1027.4 |
| 20260505011219 | 7 | 265 | 32.2 | 46.7 | 0.00 | 0.00 | 0.00 | 53 | 1027.4 |
| 20260505010714 | 8 | 272 | 16.1 | 46.7 | 0.00 | 0.00 | 0.00 | 54 | 1027.3 |
| 20260505010211 | 8 | 255 | 27.4 | 49.9 | 0.00 | 0.00 | 0.00 | 52 | 1027.1 |
| 20260505005707 | 9 | 247 | 48.3 | 53.1 | 0.00 | 0.00 | 0.00 | 49 | 1027.1 |
| 20260505005205 | 8 | 256 | 54.7 | 62.8 | 0.00 | 0.00 | 0.00 | 50 | 1027.1 |
| 20260505004702 | 10 | 245 | 38.6 | 62.8 | 0.00 | 0.00 | 0.00 | 48 | 1027.1 |
| 20260505004158 | 10 | 238 | 51.5 | 66.0 | 0.00 | 0.00 | 0.00 | 47 | 1027.0 |
| 20260505003655 | 10 | 241 | 43.5 | 64.4 | 0.00 | 0.00 | 0.00 | 47 | 1027.3 |
| 20260505003153 | 10 | 237 | 32.2 | 67.6 | 0.00 | 0.00 | 0.00 | 47 | 1026.9 |
| 20260505002649 | 11 | 263 | 49.9 | 64.4 | 0.00 | 0.00 | 0.00 | 43 | 1027.3 |
| 20260505002147 | 13 | 277 | 14.5 | 24.1 | 0.00 | 0.00 | 0.00 | 30 | 1027.1 |
| 20260505001644 | 13 | 254 | 12.9 | 35.4 | 0.00 | 0.00 | 0.00 | 30 | 1027.0 |
| 20260505001141 | 13 | 288 | 8.0 | 25.7 | 0.00 | 0.00 | 0.00 | 30 | 1027.3 |
| 20260505000638 | 12 | 342 | 6.4 | 19.3 | 0.00 | 0.00 | 0.00 | 29 | 1027.1 |
| 20260505000137 | 13 | 297 | 20.9 | 37.0 | 0.00 | 0.00 | 0.00 | 29 | 1027.4 |
| 20260504235632 | 12 | 347 | 38.6 | 38.6 | 0.00 | 0.00 | 0.00 | 30 | 1027.3 |
| 20260504235129 | 12 | 301 | 12.9 | 24.1 | 0.00 | 0.00 | 0.00 | 28 | 1027.3 |
| 20260504234626 | 12 | 279 | 8.0 | 35.4 | 0.00 | 0.00 | 0.00 | 30 | 1027.7 |
| 20260504234123 | 12 | 289 | 20.9 | 30.6 | 0.00 | 0.00 | 0.00 | 30 | 1027.3 |
| 20260504233619 | 12 | 276 | 30.6 | 40.2 | 0.00 | 0.00 | 0.00 | 29 | 1027.5 |
| 20260504233115 | 12 | 282 | 22.5 | 30.6 | 0.00 | 0.00 | 0.00 | 29 | 1027.5 |
| 20260504232613 | 12 | 295 | 14.5 | 35.4 | 0.00 | 0.00 | 0.00 | 29 | 1027.5 |
| 20260504232110 | 11 | 301 | 12.9 | 38.6 | 0.00 | 0.00 | 0.00 | 33 | 1027.4 |
| 20260504231606 | 11 | 308 | 11.3 | 27.4 | 0.00 | 0.00 | 0.00 | 32 | 1027.4 |
| 20260504231102 | 11 | 312 | 32.2 | 32.2 | 0.00 | 0.00 | 0.00 | 32 | 1027.4 |
| 20260504230559 | 11 | 308 | 12.9 | 29.0 | 0.00 | 0.00 | 0.00 | 32 | 1027.7 |
| 20260504230058 | 11 | 311 | 35.4 | 40.2 | 0.00 | 0.00 | 0.00 | 32 | 1027.4 |
| 20260504225555 | 12 | 260 | 8.0 | 30.6 | 0.00 | 0.00 | 0.00 | 31 | 1027.7 |
| 20260504225052 | 12 | 263 | 12.9 | 40.2 | 0.00 | 0.00 | 0.00 | 32 | 1027.3 |
| 20260504224548 | 11 | 334 | 17.7 | 29.0 | 0.00 | 0.00 | 0.00 | 33 | 1027.7 |
| 20260504224046 | 12 | 297 | 14.5 | 30.6 | 0.00 | 0.00 | 0.00 | 30 | 1027.5 |
| 20260504223543 | 12 | 341 | 8.0 | 25.7 | 0.00 | 0.00 | 0.00 | 32 | 1027.7 |
| 20260504223038 | 11 | 319 | 14.5 | 43.5 | 0.00 | 0.00 | 0.00 | 32 | 1027.7 |
| 20260504222535 | 11 | 327 | 16.1 | 43.5 | 0.00 | 0.00 | 0.00 | 33 | 1027.5 |
| 20260504222033 | 11 | 345 | 12.9 | 33.8 | 0.00 | 0.00 | 0.00 | 33 | 1027.4 |
| 20260504221530 | 11 | 317 | 35.4 | 37.0 | 0.00 | 0.00 | 0.00 | 34 | 1027.5 |
| 20260504221026 | 11 | 306 | 17.7 | 38.6 | 0.00 | 0.00 | 0.00 | 34 | 1027.5 |
| 20260504220523 | 12 | 285 | 11.3 | 37.0 | 0.00 | 0.00 | 0.00 | 33 | 1027.5 |
| 20260504220020 | 12 | 318 | 8.0 | 30.6 | 0.00 | 0.00 | 0.00 | 31 | 1027.8 |
| 20260504215516 | 12 | 296 | 14.5 | 45.1 | 0.00 | 0.00 | 0.00 | 33 | 1027.5 |
| 20260504215014 | 12 | 309 | 19.3 | 40.2 | 0.00 | 0.00 | 0.00 | 34 | 1027.7 |
| 20260504214510 | 12 | 329 | 24.1 | 46.7 | 0.00 | 0.00 | 0.00 | 33 | 1028.1 |
| 20260504214006 | 11 | 289 | 19.3 | 56.3 | 0.00 | 0.00 | 0.00 | 32 | 1028.2 |
| 20260504213502 | 12 | 309 | 41.8 | 49.9 | 0.00 | 0.00 | 0.00 | 32 | 1028.1 |
| 20260504213000 | 13 | 309 | 20.9 | 33.8 | 0.00 | 0.00 | 0.00 | 33 | 1027.9 |
| 20260504212456 | 13 | 333 | 14.5 | 48.3 | 0.00 | 0.00 | 0.00 | 28 | 1028.1 |
| 20260504211953 | 12 | 301 | 43.5 | 49.9 | 0.00 | 0.00 | 0.00 | 30 | 1028.2 |
| 20260504211450 | 13 | 307 | 19.3 | 38.6 | 0.00 | 0.00 | 0.00 | 30 | 1028.2 |
| 20260504210947 | 12 | 328 | 22.5 | 37.0 | 0.00 | 0.00 | 0.00 | 29 | 1028.5 |
| 20260504210444 | 13 | 339 | 24.1 | 38.6 | 0.00 | 0.00 | 0.00 | 30 | 1028.1 |
| 20260504205941 | 13 | 304 | 19.3 | 20.9 | 0.00 | 0.00 | 0.00 | 30 | 1028.5 |
| 20260504205438 | 12 | 300 | 29.0 | 46.7 | 0.00 | 0.00 | 0.00 | 28 | 1028.6 |
| 20260504204937 | 12 | 337 | 17.7 | 30.6 | 0.00 | 0.00 | 0.00 | 31 | 1028.5 |
| 20260504204434 | 12 | 306 | 12.9 | 25.7 | 0.00 | 0.00 | 0.00 | 30 | 1028.2 |
| 20260504203934 | 12 | 338 | 22.5 | 29.0 | 0.00 | 0.00 | 0.00 | 30 | 1028.5 |
| 20260504203431 | 12 | 336 | 24.1 | 30.6 | 0.00 | 0.00 | 0.00 | 30 | 1028.5 |
| 20260504202927 | 13 | 341 | 14.5 | 38.6 | 0.00 | 0.00 | 0.00 | 27 | 1028.3 |
| 20260504202423 | 13 | 332 | 9.7 | 32.2 | 0.00 | 0.00 | 0.00 | 27 | 1028.7 |
| 20260504201920 | 12 | 333 | 17.7 | 25.7 | 0.00 | 0.00 | 0.00 | 28 | 1028.9 |
| 20260504201418 | 12 | 337 | 19.3 | 37.0 | 0.00 | 0.00 | 0.00 | 29 | 1028.7 |
| 20260504200915 | 11 | 347 | 27.4 | 48.3 | 0.00 | 0.00 | 0.00 | 31 | 1028.3 |
| 20260504200411 | 12 | 329 | 8.0 | 32.2 | 0.00 | 0.00 | 0.00 | 28 | 1029.0 |
| 20260504195908 | 11 | 18 | 27.4 | 38.6 | 0.00 | 0.00 | 0.00 | 30 | 1028.6 |
| 20260504195404 | 11 | 340 | 22.5 | 45.1 | 0.00 | 0.00 | 0.00 | 31 | 1028.9 |
| 20260504194901 | 11 | 316 | 8.0 | 37.0 | 0.00 | 0.00 | 0.00 | 32 | 1028.9 |
| 20260504194356 | 11 | 346 | 37.0 | 41.8 | 0.00 | 0.00 | 0.00 | 32 | 1028.6 |
| 20260504193852 | 11 | 334 | 38.6 | 40.2 | 0.00 | 0.00 | 0.00 | 32 | 1029.1 |
| 20260504193350 | 11 | 353 | 37.0 | 40.2 | 0.00 | 0.00 | 0.00 | 34 | 1028.9 |
| 20260504192849 | 11 | 113 | 8.0 | 14.5 | 0.00 | 0.00 | 0.00 | 33 | 1029.0 |
| 20260504192346 | 10 | 128 | 11.3 | 27.4 | 0.00 | 0.00 | 0.00 | 34 | 1029.1 |
| 20260504191844 | 11 | 154 | 11.3 | 19.3 | 0.00 | 0.00 | 0.00 | 33 | 1029.3 |
| 20260504191342 | 10 | 185 | 6.4 | 14.5 | 0.00 | 0.00 | 0.00 | 31 | 1029.3 |
| 20260504190837 | 10 | 125 | 8.0 | 14.5 | 0.00 | 0.00 | 0.00 | 33 | 1029.4 |
| 20260504190333 | 10 | 160 | 8.0 | 19.3 | 0.00 | 0.00 | 0.00 | 34 | 1029.1 |
| 20260504185830 | 9 | 173 | 11.3 | 17.7 | 0.00 | 0.00 | 0.00 | 35 | 1029.5 |
| 20260504185327 | 9 | 137 | 4.8 | 14.5 | 0.00 | 0.00 | 0.00 | 36 | 1029.7 |
| 20260504184823 | 8 | 164 | 1.6 | 9.7 | 0.00 | 0.00 | 0.00 | 38 | 1029.7 |
| 20260504184319 | 8 | 158 | 11.3 | 27.4 | 0.00 | 0.00 | 0.00 | 34 | 1029.7 |
| 20260504183815 | 8 | 85 | 30.6 | 48.3 | 0.00 | 0.00 | 0.00 | 34 | 1029.8 |
| 20260504183312 | 7 | 166 | 9.7 | 20.9 | 0.00 | 0.00 | 0.00 | 42 | 1030.3 |
| 20260504182810 | 8 | 237 | 16.1 | 43.5 | 0.00 | 0.00 | 0.00 | 38 | 1029.8 |
| 20260504182307 | 8 | 234 | 38.6 | 38.6 | 0.00 | 0.00 | 0.00 | 34 | 1029.7 |
| 20260504181804 | 10 | 286 | 12.9 | 27.4 | 0.00 | 0.00 | 0.00 | 32 | 1029.7 |
| 20260504181301 | 10 | 308 | 8.0 | 22.5 | 0.00 | 0.00 | 0.00 | 29 | 1029.8 |
| 20260504180801 | 10 | 274 | 8.0 | 14.5 | 0.00 | 0.00 | 0.00 | 32 | 1029.8 |
| 20260504180259 | 10 | 279 | 8.0 | 14.5 | 0.00 | 0.00 | 0.00 | 31 | 1029.7 |
| 20260504175756 | 10 | 307 | 11.3 | 29.0 | 0.00 | 0.00 | 0.00 | 30 | 1029.8 |
| 20260504175253 | 11 | 257 | 0.0 | 6.4 | 0.00 | 0.00 | 0.00 | 28 | 1029.8 |
| 20260504174751 | 12 | 291 | 8.0 | 19.3 | 0.00 | 0.00 | 0.00 | 30 | 1029.9 |
| 20260504174249 | 10 | 27 | 14.5 | 24.1 | 0.00 | 0.00 | 0.00 | 33 | 1029.8 |
| 20260504173745 | 11 | 341 | 4.8 | 24.1 | 0.00 | 0.00 | 0.00 | 34 | 1029.7 |
| 20260504173242 | 11 | 354 | 17.7 | 29.0 | 0.00 | 0.00 | 0.00 | 35 | 1029.8 |
| 20260504172739 | 11 | 196 | 4.8 | 17.7 | 0.00 | 0.00 | 0.00 | 31 | 1029.9 |
| 20260504172235 | 11 | 339 | 6.4 | 11.3 | 0.00 | 0.00 | 0.00 | 31 | 1029.9 |
| 20260504171731 | 11 | 318 | 11.3 | 20.9 | 0.00 | 0.00 | 0.00 | 32 | 1029.8 |
| 20260504171228 | 11 | 334 | 8.0 | 11.3 | 0.00 | 0.00 | 0.00 | 33 | 1029.9 |
| 20260504170725 | 10 | 301 | 1.6 | 20.9 | 0.00 | 0.00 | 0.00 | 35 | 1030.1 |
| 20260504170223 | 11 | 317 | 6.4 | 19.3 | 0.00 | 0.00 | 0.00 | 34 | 1030.2 |
| 20260504160141 | 9 | 307 | 14.5 | 22.5 | 0.00 | 0.00 | 0.00 | 39 | 1029.9 |
| 20260504151108 | 7 | 247 | 16.1 | 24.1 | 0.00 | 0.00 | 0.00 | 40 | 1030.5 |
| 20260504150606 | 7 | 253 | 20.9 | 20.9 | 0.00 | 0.00 | 0.00 | 39 | 1030.2 |
| 20260504141032 | 6 | 244 | 17.7 | 25.7 | 0.00 | 0.00 | 0.00 | 39 | 1030.2 |
| 20260504140528 | 6 | 252 | 25.7 | 29.0 | 0.00 | 0.00 | 0.00 | 39 | 1030.5 |
| 20260504130453 | 5 | 251 | 19.3 | 33.8 | 0.00 | 0.00 | 0.00 | 37 | 1030.2 |
| 20260504110335 | 7 | 86 | 1.6 | 4.8 | 0.00 | 0.00 | 0.00 | 29 | 1029.8 |